FW2865 Weather Reports


time (UTC)temp
F
wind
direction
speed
knots
gust
knots
rain 1hr
in
rain 24hr
in
rain mn
in
humidity
%
barometer
mb
20260508213011 65 331 9.6 17.4 0.00 0.00 0.00 15 1010.9
20260508211523 65 338 6.1 20.0 0.00 0.00 0.00 18 1010.9
20260508204505 65 342 9.6 22.6 0.00 0.00 0.00 19 1011.0
20260508203005 64 360 9.6 20.0 0.00 0.00 0.00 17 1011.1
20260508201503 65 351 9.6 21.7 0.00 0.00 0.00 19 1011.1
20260508194505 65 290 12.2 18.2 0.00 0.00 0.00 17 1011.4
20260508193150 65 315 6.1 18.2 0.00 0.00 0.00 17 1011.5
20260508191605 65 355 12.2 26.1 0.00 0.00 0.00 17 1011.4
20260508191503 65 24 11.3 26.1 0.00 0.00 0.00 18 1011.5
20260508184515 64 299 7.0 19.1 0.00 0.00 0.00 20 1011.6
20260508183021 63 360 7.8 20.0 0.00 0.00 0.00 21 1011.8
20260508181511 63 360 8.7 16.5 0.00 0.00 0.00 20 1011.9
20260508174552 63 298 6.1 18.2 0.00 0.00 0.00 22 1012.1
20260508173046 62 360 6.1 17.4 0.00 0.00 0.00 21 1012.0
20260508171544 63 360 8.7 17.4 0.00 0.00 0.00 22 1012.0
20260508164544 63 298 8.7 16.5 0.00 0.00 0.00 21 1012.0
20260508163036 63 293 7.0 13.9 0.00 0.00 0.00 21 1011.9
20260508161531 62 306 7.8 15.6 0.00 0.00 0.00 21 1011.8
20260508154540 59 360 7.8 13.0 0.00 0.00 0.00 25 1012.0
20260508153019 55 46 2.6 4.3 0.00 0.00 0.00 43 1011.9
20260508151516 52 360 0.9 5.2 0.00 0.00 0.00 48 1012.0
20260508144513 48 360 0.0 0.0 0.00 0.00 0.00 52 1012.1
20260508143009 46 360 0.0 0.0 0.00 0.00 0.00 57 1012.2
20260508141506 43 360 0.0 0.0 0.00 0.00 0.00 60 1012.3
20260508134622 39 360 0.0 0.0 0.00 0.00 0.00 65 1012.4
20260508133058 36 360 0.0 0.0 0.00 0.00 0.00 65 1012.5
20260508131551 35 360 0.0 0.0 0.00 0.00 0.00 65 1012.3
20260508124546 34 360 0.0 0.0 0.00 0.00 0.00 64 1012.1
20260508123050 34 360 0.0 0.0 0.00 0.00 0.00 64 1012.1
20260508121545 34 360 0.0 0.0 0.00 0.00 0.00 64 1011.9
20260508114538 34 360 0.0 0.0 0.00 0.00 0.00 64 1011.6
20260508113037 34 360 0.0 0.0 0.00 0.00 0.00 63 1011.6
20260508111537 35 360 0.0 0.0 0.00 0.00 0.00 63 1011.6
20260508104531 35 360 0.0 0.0 0.00 0.00 0.00 62 1011.6
20260508103033 35 360 0.0 0.0 0.00 0.00 0.00 61 1011.4
20260508101528 36 360 0.0 0.0 0.00 0.00 0.00 60 1011.3
20260508094526 36 360 0.0 0.0 0.00 0.00 0.00 59 1011.2
20260508093024 37 360 0.0 0.0 0.00 0.00 0.00 58 1011.1
20260508091523 37 360 0.0 0.0 0.00 0.00 0.00 58 1011.1
20260508084518 38 360 0.0 0.0 0.00 0.00 0.00 56 1011.2
20260508083015 38 360 0.0 0.0 0.00 0.00 0.00 56 1011.4
20260508081513 39 360 0.0 0.0 0.00 0.00 0.00 55 1011.4
20260508074511 40 360 0.0 0.0 0.00 0.00 0.00 54 1011.6
20260508073009 40 360 0.0 0.0 0.00 0.00 0.00 53 1011.5
20260508071508 41 360 0.0 0.0 0.00 0.00 0.00 53 1011.5
20260508064504 42 360 0.0 0.0 0.00 0.00 0.00 52 1011.5
20260508063008 42 360 0.0 0.0 0.00 0.00 0.00 51 1011.5
20260508061609 42 360 0.0 0.0 0.00 0.00 0.00 51 1011.5
20260508054501 44 360 0.0 0.0 0.00 0.00 0.00 48 1011.5
20260508053101 44 360 0.0 0.0 0.00 0.00 0.00 47 1011.3
20260508051614 45 360 0.0 0.0 0.00 0.00 0.00 47 1011.2
20260508044601 46 360 0.0 0.0 0.00 0.00 0.00 44 1011.2
20260508043100 48 360 0.0 1.7 0.00 0.00 0.00 43 1011.2
20260508041600 48 360 0.0 2.6 0.00 0.00 0.00 40 1011.3
20260508041502 49 360 0.0 2.6 0.00 0.00 0.00 40 1011.2
20260508034558 51 360 0.0 0.0 0.00 0.00 0.00 37 1011.2
20260508033101 52 360 0.0 0.0 0.00 0.00 0.00 35 1011.0
20260508031600 54 360 0.0 0.0 0.00 0.00 0.00 32 1010.9
20260508024618 56 360 2.6 3.5 0.00 0.00 0.00 30 1010.8
20260508023056 57 360 1.7 4.3 0.00 0.00 0.00 27 1010.6
20260508021605 59 360 1.7 4.3 0.00 0.00 0.00 25 1010.7
20260508020155 61 360 2.6 9.6 0.00 0.00 0.00 22 1010.6
20260508014556 61 360 4.3 10.4 0.00 0.00 0.00 21 1010.7
20260508013054 62 360 5.2 11.3 0.00 0.00 0.00 20 1010.6
20260508011601 62 348 6.1 13.0 0.00 0.00 0.00 20 1010.6
20260508004542 62 311 9.6 18.2 0.00 0.00 0.00 20 1010.7
20260508003029 62 282 7.0 13.0 0.00 0.00 0.00 19 1010.9
20260508001528 63 360 5.2 11.3 0.00 0.00 0.00 21 1011.2
20260508000011 62 360 6.1 13.9 0.00 0.00 0.00 21 1011.2
20260507234511 63 360 4.3 13.0 0.00 0.00 0.00 22 1011.5
20260507233009 63 360 5.2 12.2 0.00 0.00 0.00 22 1011.8
20260507231507 63 360 5.2 11.3 0.00 0.00 0.00 22 1012.0
20260507230005 63 360 7.8 13.9 0.00 0.00 0.00 22 1012.3
20260507224502 64 360 8.7 13.9 0.00 0.00 0.00 22 1012.6
20260507223003 65 298 6.1 17.4 0.00 0.00 0.00 21 1012.6
20260507221502 65 321 8.7 13.9 0.00 0.00 0.00 21 1012.7
20260507220101 64 341 8.7 16.5 0.00 0.00 0.00 20 1013.0
20260507214557 64 360 7.8 14.8 0.00 0.00 0.00 21 1013.0